FW1946 Weather Reports


Display with metric or nautical units.
time (UTC)temp
F
wind
direction
speed
MPH
gust
MPH
rain 1hr
in
rain 24hr
in
rain mn
in
humidity
%
barometer
mb
20260903051537 53 180 0.0 0.0 0.01 0.28 0.27 95 1010.2
20260903030033 56 225 0.0 3.0 0.02 0.24 0.22 94 1008.9
20260903023034 59 169 0.0 2.0 0.04 0.22 0.19 94 1008.4
20260903014530 59 175 0.0 0.0 0.01 0.19 0.18 94 1008.2
20260903013032 59 337 0.0 0.0 0.01 0.18 0.18 93 1008.2
20260903010034 59 337 0.0 1.0 0.03 0.18 0.18 93 1008.3
20260903004537 59 337 0.0 0.0 0.03 0.18 0.17 93 1008.4
20260903003035 59 337 0.0 0.0 0.03 0.17 0.17 92 1008.4
20260903001535 59 337 0.0 3.0 0.03 0.17 0.15 92 1008.3
20260903000036 59 17 0.0 2.0 0.01 0.15 0.14 90 1008.2
20260902233034 60 337 2.0 4.0 0.02 0.14 0.14 90 1008.4
20260902231531 60 337 1.0 3.0 0.03 0.14 0.14 90 1008.6
20260902224533 59 337 2.0 5.0 0.03 0.12 0.11 92 1008.5
20260902221536 60 358 1.0 4.0 0.05 0.11 0.09 91 1008.2
20260902213034 60 334 2.0 5.0 0.04 0.07 0.06 90 1008.1
20260902211535 60 353 1.0 4.0 0.05 0.06 0.06 89 1008.2
20260902204534 61 22 0.0 2.0 0.03 0.04 0.03 86 1008.3
20260902201610 61 337 0.0 2.0 0.01 0.01 0.01 81 1008.4
20260902194534 63 270 0.0 0.0 0.01 0.01 0.00 76 1008.3
20260902193031 64 270 0.0 2.0 0.00 0.00 0.00 72 1008.2
20260902183037 66 337 1.0 6.0 0.00 0.00 0.00 62 1007.8
20260902181536 65 346 2.0 5.0 0.00 0.00 0.00 62 1007.8
20260902180035 67 347 2.0 5.0 0.00 0.00 0.00 61 1007.9
20260902174533 66 343 3.0 6.0 0.00 0.00 0.00 64 1008.0
20260902173201 65 333 3.0 7.0 0.00 0.00 0.00 66 1008.1
20260902171534 66 322 1.0 4.0 0.00 0.00 0.00 64 1008.3
20260902170141 66 302 1.0 5.0 0.00 0.00 0.00 66 1008.5
20260902164609 65 217 0.0 3.0 0.00 0.00 0.00 68 1008.7
20260902163031 65 360 0.0 2.0 0.00 0.00 0.00 68 1008.8
20260902161532 63 132 0.0 2.0 0.00 0.00 0.00 71 1009.1
20260902154534 62 181 0.0 3.0 0.00 0.00 0.00 75 1009.4
20260902153035 60 202 0.0 2.0 0.00 0.00 0.00 81 1009.6
20260902143034 56 118 0.0 3.0 0.00 0.00 0.00 86 1010.1
20260902141611 54 225 0.0 1.0 0.00 0.00 0.00 87 1010.2
20260902140033 53 225 0.0 1.0 0.00 0.00 0.00 87 1010.2
20260902134530 53 225 0.0 1.0 0.00 0.00 0.00 86 1010.3
20260902133033 53 225 0.0 1.0 0.00 0.00 0.00 84 1010.3
20260902131537 54 225 0.0 1.0 0.00 0.00 0.00 82 1010.3
20260902130109 55 225 0.0 1.0 0.00 0.00 0.00 80 1010.4
20260902124538 56 222 0.0 2.0 0.00 0.00 0.00 78 1010.3
20260902123106 57 217 0.0 2.0 0.00 0.00 0.00 76 1010.3
20260902121535 58 287 0.0 4.0 0.00 0.00 0.00 75 1010.3
20260902120040 58 287 0.0 4.0 0.00 0.00 0.00 75 1010.4
20260902114535 58 269 0.0 5.0 0.00 0.00 0.00 75 1010.6
20260902111531 58 260 0.0 5.0 0.00 0.00 0.00 75 1010.5
20260902110036 58 243 0.0 3.0 0.00 0.00 0.00 75 1010.6
20260902104549 59 279 0.0 4.0 0.00 0.00 0.00 75 1010.8
20260902104539 59 253 1.0 6.0 0.00 0.00 0.00 76 1010.9
20260902101541 60 263 0.0 9.0 0.00 0.00 0.00 76 1010.9
20260902100032 60 259 0.0 5.0 0.00 0.00 0.00 76 1010.9
20260902094607 60 233 1.0 7.0 0.00 0.00 0.00 76 1011.0
20260902091534 59 245 1.0 8.0 0.00 0.00 0.00 76 1011.1
20260902090033 59 238 1.0 5.0 0.00 0.00 0.00 77 1011.0
20260902084531 59 258 1.0 7.0 0.00 0.00 0.00 76 1011.1
20260902081535 59 266 1.0 7.0 0.00 0.00 0.00 76 1011.1
20260902080033 59 278 0.0 6.0 0.00 0.00 0.00 76 1011.2
20260902074530 60 269 0.0 5.0 0.00 0.00 0.00 75 1011.3
20260902070033 62 275 1.0 8.0 0.00 0.00 0.00 70 1011.8
20260902064536 62 274 1.0 9.0 0.00 0.00 0.00 70 1011.8
20260902061536 63 245 1.0 9.0 0.00 0.00 0.00 70 1011.9
20260902060031 63 266 2.0 9.0 0.00 0.00 0.00 69 1012.0
20260902054529 63 273 1.0 7.0 0.00 0.00 0.00 69 1011.9